Location: Unspecified
(0.0000°N, 0.0000°E)
Time: 16:22:54
(UTC+00:00)

Vanguard 2 Rocket - Pass Details

Date: 28 November 2019
Orbit: 554 x 3326 km, 32.9° (Epoch: 13 December)

Event Time Altitude Azimuth Distance (km) Brightness Sun altitude
Rises 14:01:02 0° 224° (SW) 7,266 12.1 51.1°
Reaches altitude 10° 14:07:37 10° 212° (SSW) 6,287 12.0 49.8°
Maximum altitude 14:22:52 26° 163° (SSE) 4,611 10.9 46.6°
Drops below altitude 10° 14:34:53 10° 112° (ESE) 4,980 10.5 44.0°
Sets 14:39:10 0° 99° (E) 5,575 10.6 43.1°
